Date String (YYYY-MM-DD hh:mm:ss) UTC,Instrument flags,absolute air pressure of the measurement (hPa),sample flow rate (lpm),inlet stack bypass flow (lpm),air temperature of the measurement (°C),ambient temperature measured by the external sensor (°C),aerosol sample conditioner tube jacket temperature (°C),OPC LED temperature (°C),internal box temperature (°C),relative humidity of the measurement (%),span deviation,mass concentration of particles derived from Lorenz-Mie calculation of OPC scattering (μg/m³),mass concentration of particles derived from Lorenz-Mie calculation of OPC scattering (μg/m³),mass concentration of particles derived from Lorenz-Mie calculation of OPC scattering (μg/m³)
DateTimeUTC,F1_M11,P_M11,Q1_M11,Q2_M11,T1_M11,T2_M11,T3_M11,T4_M11,T5_M11,U1_M11,ZSPAN_M11,X0_M11,X2_M11,X1_M11
2023-12-05 18:00:00,SystemResetWarning,0835.5,5.01,000.00,023.4,022.8,000.0,031.4,024.8,17.3,0000.0,0007.85,0003.68,0003.22
2023-12-05 18:01:00,SystemResetWarning,0835.5,5.01,000.00,023.4,022.8,000.0,031.5,024.9,17.2,0000.0,0007.43,0003.66,0003.20
2023-12-05 18:02:00,SystemResetWarning,0835.4,5.00,000.00,023.4,022.9,000.0,031.5,024.9,17.3,0000.0,0006.99,0003.61,0003.16
2023-12-05 18:03:00,SystemResetWarning,0835.4,5.00,000.00,023.5,022.9,000.0,031.5,024.9,17.3,0000.0,0007.56,0003.54,0003.12
2023-12-05 18:04:00,SystemResetWarning,0835.4,5.00,000.00,023.5,022.9,000.0,031.5,024.9,16.9,0000.0,0008.36,0003.48,0003.06
2023-12-05 18:05:00,SystemResetWarning,0835.4,5.00,000.00,023.5,022.9,000.0,031.5,025.0,17.0,0000.0,0008.20,0003.43,0002.99
2023-12-05 18:06:00,SystemResetWarning,0835.4,5.00,000.00,023.5,023.0,000.0,031.6,025.0,17.1,0000.0,0008.09,0003.35,0002.89
2023-12-05 18:07:00,SystemResetWarning,0835.3,5.00,000.00,023.6,023.0,000.0,031.6,025.0,16.9,0000.0,0008.46,0003.27,0002.80
2023-12-05 18:08:00,SystemResetWarning,0835.3,4.99,000.00,023.6,023.0,000.0,031.6,025.0,16.8,0000.0,0008.61,0003.24,0002.71
2023-12-05 18:09:00,SystemResetWarning,0835.3,5.00,000.00,023.6,023.1,000.0,031.6,025.1,16.5,0000.0,0008.75,0003.20,0002.61
2023-12-05 18:10:00,SystemResetWarning,0835.2,5.00,000.00,023.6,023.1,000.0,031.7,025.1,16.1,0000.0,0008.65,0003.15,0002.52
2023-12-05 18:11:00,SystemResetWarning,0835.2,5.00,000.00,023.7,023.1,000.0,031.7,025.1,16.8,0000.0,0008.50,0003.03,0002.42
2023-12-05 18:12:00,SystemResetWarning,0835.3,5.00,000.00,023.7,023.1,000.0,031.7,025.1,17.4,0000.0,0008.49,0002.91,0002.33
2023-12-05 18:13:00,SystemResetWarning,0835.2,5.00,000.00,023.7,023.1,000.0,031.7,025.1,17.2,0000.0,0008.72,0002.82,0002.26
2023-12-05 18:14:00,SystemResetWarning,0835.3,5.00,000.00,023.7,023.2,000.0,031.8,025.2,17.1,0000.0,0008.19,0002.73,0002.18
2023-12-05 18:15:00,SystemResetWarning,0835.3,5.00,000.00,023.8,023.2,000.0,031.8,025.2,17.2,0000.0,0006.89,0002.64,0002.12
2023-12-05 18:16:00,SystemResetWarning,0835.3,5.00,000.00,023.8,023.2,000.0,031.8,025.2,17.3,0000.0,0006.69,0002.52,0002.04
2023-12-05 18:17:00,SystemResetWarning,0835.3,5.00,000.00,023.8,023.2,000.0,031.8,025.3,17.3,0000.0,0006.53,0002.47,0002.00
2023-12-05 18:18:00,SystemResetWarning,0835.3,5.00,000.00,023.8,023.3,000.0,031.9,025.3,17.0,0000.0,0005.50,0002.43,0001.93
2023-12-05 18:19:00,SystemResetWarning,0835.2,5.00,000.00,023.9,023.3,000.0,031.9,025.3,16.7,0000.0,0004.67,0002.30,0001.85
2023-12-05 18:20:00,SystemResetWarning,0835.2,5.00,000.00,023.9,023.3,000.0,031.9,025.4,16.6,0000.0,0003.96,0002.28,0001.84
2023-12-05 18:21:00,SystemResetWarning,0835.2,5.01,000.00,023.9,023.4,000.0,031.9,025.4,16.9,0000.0,0004.47,0002.27,0001.86
2023-12-05 18:22:00,SystemResetWarning,0835.2,5.01,000.00,023.9,023.4,000.0,032.0,025.4,16.8,0000.0,0005.06,0002.26,0001.88
2023-12-05 18:23:00,SystemResetWarning,0835.2,5.01,000.00,024.0,023.4,000.0,032.0,025.5,16.6,0000.0,0005.20,0002.34,0001.91
2023-12-05 18:24:00,SystemResetWarning,0835.3,5.00,000.00,024.0,023.4,000.0,032.0,025.5,16.9,0000.0,0005.68,0002.44,0001.96
2023-12-05 18:25:00,SystemResetWarning,0835.3,5.00,000.00,024.0,023.5,000.0,032.0,025.5,17.0,0000.0,0005.98,0002.56,0002.02
2023-12-05 18:26:00,SystemResetWarning,0835.3,5.00,000.00,024.0,023.5,000.0,032.1,025.5,17.3,0000.0,0006.09,0002.62,0002.06
2023-12-05 18:27:00,SystemResetWarning,0835.3,5.00,000.00,024.1,023.5,000.0,032.1,025.5,17.4,0000.0,0006.36,0002.67,0002.11
2023-12-05 18:28:00,SystemResetWarning,0835.3,4.99,000.00,024.1,023.6,000.0,032.1,025.5,17.6,0000.0,0007.62,0002.74,0002.15
2023-12-05 18:29:00,SystemResetWarning,0835.3,4.99,000.00,024.1,023.6,000.0,032.1,025.6,17.3,0000.0,0008.04,0002.78,0002.17
2023-12-05 18:30:00,SystemResetWarning,0835.3,5.00,000.00,024.2,023.6,000.0,032.2,025.6,17.1,0000.0,0008.22,0002.91,0002.23
2023-12-05 18:31:00,SystemResetWarning,0835.3,5.00,000.00,024.2,023.6,000.0,032.2,025.6,16.8,0000.0,0008.36,0002.94,0002.26
2023-12-05 18:32:00,SystemResetWarning,0835.3,5.00,000.00,024.2,023.6,000.0,032.2,025.6,16.7,0000.0,0008.38,0002.93,0002.22
2023-12-05 18:33:00,SystemResetWarning,0835.3,5.00,000.00,024.2,023.7,000.0,032.2,025.6,16.8,0000.0,0007.74,0002.91,0002.19
2023-12-05 18:34:00,SystemResetWarning,0835.2,5.00,000.00,024.3,023.7,000.0,032.3,025.7,17.0,0000.0,0007.73,0002.90,0002.17
2023-12-05 18:35:00,SystemResetWarning,0835.1,5.01,000.00,024.3,023.7,000.0,032.3,025.7,16.7,0000.0,0007.18,0002.81,0002.15
2023-12-05 18:36:00,SystemResetWarning,0835.1,5.01,000.00,024.3,023.7,000.0,032.3,025.7,16.5,0000.0,0006.87,0002.81,0002.17
2023-12-05 18:37:00,SystemResetWarning,0835.2,5.01,000.00,024.3,023.8,000.0,032.3,025.7,16.3,0000.0,0007.66,0002.87,0002.20
2023-12-05 18:38:00,SystemResetWarning,0835.1,4.99,000.00,024.4,023.8,000.0,032.4,025.8,16.0,0000.0,0007.82,0002.89,0002.22
2023-12-05 18:39:00,SystemResetWarning,0835.1,5.00,000.00,024.4,023.8,000.0,032.4,025.9,16.2,0000.0,0006.98,0002.93,0002.24
2023-12-05 18:40:00,SystemResetWarning,0835.1,5.00,000.00,024.4,023.8,000.0,032.4,025.9,16.1,0000.0,0006.12,0002.98,0002.28
2023-12-05 18:41:00,SystemResetWarning,0835.2,5.00,000.00,024.4,023.9,000.0,032.4,025.9,16.0,0000.0,0006.50,0002.98,0002.30
2023-12-05 18:42:00,SystemResetWarning,0835.1,5.00,000.00,024.4,023.9,000.0,032.5,025.9,16.4,0000.0,0006.83,0003.02,0002.31
2023-12-05 18:43:00,SystemResetWarning,0835.1,5.00,000.00,024.5,023.9,000.0,032.5,026.0,16.2,0000.0,0006.93,0003.07,0002.35
2023-12-05 18:44:00,SystemResetWarning,0835.1,5.00,000.00,024.5,023.9,000.0,032.5,026.0,15.8,0000.0,0006.96,0003.09,0002.35
2023-12-05 18:45:00,SystemResetWarning,0835.1,5.00,000.00,024.5,024.0,000.0,032.5,026.0,15.6,0000.0,0006.84,0003.05,0002.36
2023-12-05 18:46:00,SystemResetWarning,0835.1,5.00,000.00,024.6,024.0,000.0,032.6,026.0,15.4,0000.0,0006.77,0003.02,0002.32
2023-12-05 18:47:00,SystemResetWarning,0835.1,5.00,000.00,024.6,024.0,000.0,032.6,026.0,16.1,0000.0,0006.67,0002.92,0002.23
2023-12-05 18:48:00,SystemResetWarning,0835.1,5.00,000.00,024.6,024.0,000.0,032.6,026.1,16.7,0000.0,0005.44,0002.77,0002.13
2023-12-05 18:49:00,SystemResetWarning,0835.0,5.00,000.00,024.6,024.0,000.0,032.6,026.1,16.8,0000.0,0005.20,0002.70,0002.05
2023-12-05 18:50:00,SystemResetWarning,0835.0,5.00,000.00,024.6,024.1,000.0,032.6,026.1,16.5,0000.0,0005.23,0002.65,0002.00
2023-12-05 18:51:00,SystemResetWarning,0835.0,5.00,000.00,024.7,024.1,000.0,032.7,026.1,16.6,0000.0,0005.07,0002.60,0001.96
2023-12-05 18:52:00,SystemResetWarning,0835.0,5.00,000.00,024.7,024.1,000.0,032.7,026.2,16.3,0000.0,0004.45,0002.49,0001.90
2023-12-05 18:53:00,SystemResetWarning,0835.0,5.00,000.00,024.7,024.1,000.0,032.7,026.2,16.7,0000.0,0004.00,0002.39,0001.83
2023-12-05 18:54:00,SystemResetWarning,0835.0,5.00,000.00,024.7,024.2,000.0,032.7,026.2,16.2,0000.0,0003.68,0002.25,0001.74
2023-12-05 18:55:00,SystemResetWarning,0835.0,5.00,000.00,024.8,024.2,000.0,032.8,026.3,16.0,0000.0,0003.61,0002.16,0001.67
2023-12-05 18:56:00,SystemResetWarning,0835.0,5.00,000.00,024.8,024.2,000.0,032.8,026.3,16.5,0000.0,0003.98,0002.19,0001.64
2023-12-05 18:57:00,SystemResetWarning,0835.0,5.00,000.00,024.8,024.2,000.0,032.8,026.3,17.4,0000.0,0005.19,0002.23,0001.66
2023-12-05 18:58:00,SystemResetWarning,0835.0,5.00,000.00,024.8,024.3,000.0,032.9,026.3,17.5,0000.0,0005.51,0002.32,0001.71
2023-12-05 18:59:00,SystemResetWarning,0835.0,5.00,000.00,024.9,024.3,000.0,032.9,026.3,17.2,0000.0,0006.13,0002.39,0001.74
